Change the Weather History Date:

Saturday, October 8, 2011

  Actual Average Record
Temperature  
Mean Temperature 54 °F -  
Max Temperature 70 °F 69 °F 86 °F (1943)
Min Temperature 41 °F 39 °F 26 °F (1931)
Degree Days  
Heating Degree Days 10    
Growing Degree Days 4 (Base 50)    
Moisture  
Dew Point 44 °F    
Average Humidity 75    
Maximum Humidity 96    
Minimum Humidity 37    
Precipitation  
Precipitation 0.00 in - - ()
Sea Level Pressure  
Sea Level Pressure 30.16 in    
Wind  
Wind Speed 3 mph (SSE)    
Max Wind Speed 7 mph    
Max Gust Speed -    
Visibility 10 miles    
Events      
Averages and records for this station are not official NWS values.
T = Trace of Precipitation, MM = Missing Value Source: NWS Daily Summary

Daily Weather History Graph

Daily Weather History Graph

Search for Another Location

Airport or City:

Trip Planner

Search our weather history database for the weather conditions in past years. The results will help you decide how hot, cold, wet, or windy it might be!

Date:

Astronomy

Oct. 08, 2011 Rise Set
Actual Time 7:04 AM PDT 6:24 PM PDT
Civil Twilight 6:34 AM PDT 6:53 PM PDT
Nautical Twilight 5:59 AM PDT 7:28 PM PDT
Astronomical Twilight 5:25 AM PDT 8:03 PM PDT
Moon 4:43 PM PDT (10/8) 3:48 AM PDT (10/8)
Length of Visible Light 12h 19m
Length of Day
11h 20m
Waxing Gibbous, 90% of the Moon is Illuminated
Oct 8
Waxing Gibbous
Oct 11
Full
Oct 19
Last Quarter
Oct 26
New
Nov 2
First Quarter

Hourly Weather History & Observations

Time (PDT) Temp. Windchill Dew Point Humidity Pressure Visibility Wind Dir Wind Speed Gust Speed Precip Events Conditions
12:53 AM 54.0 °F - 46.9 °F 77% 30.19 in 10.0 mi SW 6.9 mph - N/A   Overcast
1:53 AM 50.0 °F - 46.0 °F 86% 30.21 in 10.0 mi Calm Calm - N/A   Scattered Clouds
2:53 AM 50.0 °F - 46.0 °F 86% 30.21 in 10.0 mi Calm Calm - N/A   Mostly Cloudy
3:53 AM 46.0 °F 44.8 °F 44.1 °F 93% 30.22 in 10.0 mi East 3.5 mph - N/A   Partly Cloudy
4:53 AM 44.1 °F - 42.1 °F 93% 30.22 in 10.0 mi Calm Calm - N/A   Partly Cloudy
5:53 AM 42.1 °F 40.2 °F 39.9 °F 92% 30.22 in 10.0 mi ESE 3.5 mph - N/A   Scattered Clouds
6:53 AM 41.0 °F - 39.9 °F 96% 30.23 in 10.0 mi Calm Calm - N/A   Mostly Cloudy
7:53 AM 42.1 °F 40.2 °F 41.0 °F 96% 30.23 in 10.0 mi South 3.5 mph - N/A   Clear
9:53 AM 55.9 °F - 46.0 °F 69% 30.24 in 10.0 mi Calm Calm - N/A   Clear
11:53 AM 61.0 °F - 46.9 °F 60% 30.21 in 10.0 mi Calm Calm - N/A   Clear
12:53 PM 64.0 °F - 46.0 °F 52% 30.19 in 10.0 mi Variable 3.5 mph - N/A   Clear
1:53 PM 68.0 °F - 45.0 °F 43% 30.16 in 10.0 mi Variable 4.6 mph - N/A   Clear
2:53 PM 66.9 °F - 43.0 °F 42% 30.13 in 10.0 mi NNW 4.6 mph - N/A   Clear
3:53 PM 68.0 °F - 41.0 °F 37% 30.11 in 10.0 mi North 5.8 mph - N/A   Clear
6:53 PM 57.0 °F - 45.0 °F 64% 30.09 in 10.0 mi Calm Calm - N/A   Clear
7:53 PM 54.0 °F - 46.0 °F 75% 30.09 in 10.0 mi Calm Calm - N/A   Clear
8:53 PM 52.0 °F - 45.0 °F 77% 30.09 in 10.0 mi South 3.5 mph - N/A   Clear
9:53 PM 48.0 °F - 42.1 °F 80% 30.09 in 10.0 mi South 5.8 mph - N/A   Clear
10:54 PM 46.0 °F 43.1 °F 43.0 °F 89% 30.07 in 10.0 mi South 5.8 mph - 0.00 in   Unknown
11:53 PM 44.1 °F - 41.0 °F 89% 30.07 in 10.0 mi Calm Calm - 0.00 in   Clear